Location: Kerentrech
(47.7567°N, 3.3595°W)
Time: 18:10:00
(UTC+00:00)

Cosmos 1954 Rocket - Pass Details

Date: 17 February 2020
Orbit: 753 x 781 km, 74.0° (Epoch: 27 March)

Event Time Altitude Azimuth Distance (km) Brightness Sun altitude
Rises 06:24:00 0° 199° (SSW) 3,248 7.1 -9.5°
Reaches altitude 10° 06:26:22 10° 199° (SSW) 2,327 6.4 -9.2°
Maximum altitude 06:31:40 86° 112° (ESE) 790 4.1 -8.3°
Drops below altitude 10° 06:37:02 10° 23° (NNE) 2,345 6.7 -7.4°
Sets 06:39:25 0° 23° (NNE) 3,276 7.4 -7.0°
